YZ-1 R/B, 43210

Orbit data source: Space-Track

YZ-1 R/B, 43210 is space debris originally from a launch on Mon, 12 Feb 2018 UTC launched from the Xichang Space Center, China (XSC). Debris objects in space refer to the collection of defunct objects orbiting the Earth. Examples of debris include non-operational satellites, rocket bodies, and fragments generated from explosions, collisions, or faulty payload assembly.

Loading next visibility...
Identifier
43210, 2018-018D
Orbit
Active
Last TLE update
6 days ago
Origin
Manufacturer
CALT
Mission
Spacecraft
Bus & Motor
YZ-1, Unknown motor
Mass
~2,075 kg wet, ~2,075 kg dry
Launch date (UTC)
2018-02-12 (7 years ago)
Launch vehicle
Unknown
Launch site
Xichang Space Center, China (XSC)
Object type
Payload
Rocket body
Debris
Shape & HBR
Double Cone, 4 m
Radar Cross Section
5.890 m², Large (>1 m²)

Expand to show TLE details & history

TLE from 6 days ago
0 YZ-1 R/B
1 43210U 18018D   25177.63504761 -.00000048  00000-0  00000+0 0  9994
2 43210  56.1129  81.8908 0038065  99.4503 261.0032  1.79055362 48196
Epoch: 2025-06-26T15:14Z
TLE epoch observation values (Epoch: 2025-06-26T15:14:28.113Z)
Latitude
0.00002°
Longitude
-61.7094°
Altitude
22,286.31 km
Speed
3.728 km/s
True Right ascension
05h 27m 37s
True Declination
0° 00' 00"
Sunlit
Object was in daylight at epoch
Visualization orbit readout
Latitude
9.90625°
Longitude
-55.16348°
Altitude
22,263.152 km
Speed
3.731 km/s
Apparent Right ascension
05h 49m 31s
Apparent Declination
1° 28' 14"
Sunlit
Object is in daylight
Visualization observer readout
Local Sidereal Time
17:24:47
Azimuth
350.7° N
Elevation
-48.228°
Doppler factor
1
Orbital elements
Apogee altitude
22,377.728 km
Perigee altitude
22,159.64 km
Semi-major axis
28,646.821 km
Eccentricity
0.00381
Inclination
56.1129°
RAAN
81.8908°
Arg. of periapsis
99.4503°
True anomaly
Unknown
Mean anomaly
261.0032°
Eccentric anomaly
Unknown
Mean motion
0.44764 °/min
Orbital period
804.22 mins
BSTAR
0
Loading maneuver chart data...
Loading SW <> Apogee altitude chart data...
Loading historical data...
Loading historical data...
Loading historical data...
Loading historical data...
Loading historical data...
Loading historical data...
Loading historical data...
Other satellites on launch #18 in the year 2018 (2018-02-12 UTC)

YZ-1 R/B Visibility forecast

Observer location: undefined°, undefined°

Span
Click to sort rows by Start time (UTC) header in descending order
Start Az.
Max El. time (UTC)
Max El. Az.
Max El.
End time (UTC)
End Az.
453 mins2025-07-02 17:30:10.901Z195.195° SSW2025-07-02 20:43:10.901Z302.771° NW44.759°2025-07-03 01:03:10.901Z101.194° ESE
|